カマラーサ-ドゥサノヴィッツ彗星

C/2023 V4 ( Camarasa-Duszanowicz )

English version
Home page
Updated on February 29, 2024

---------------------------------------------------------------------

・ プロフィール

発見日 2023年11月5日
発見光度 18.7等
発見者 Jordi Camarasa (Sabadell, Barcelona, Spain), Grzegorz Duszanowicz (Akersberga, Sweden)

・ 写真集

・ 軌道要素

Epoch 2024 Mar. 31.0 TT = JDT 2460400.5
T 2024 May 30.36468 TT                                  Rudenko
q   1.1217443            (2000.0)            P               Q
z  -0.0009317      Peri.   50.85228     -0.02253834     -0.53611163
 +/-0.0000117      Node    66.32572     +0.35728439     -0.79263887
e   1.0010452      Incl.   67.12977     +0.93372367     +0.29035831
>From 414 observations 2023 Nov. 5-2024 Feb. 24, mean residual 0".6.

・ 星図

・ 光度変化

        m1 = 10.0 + 5 logΔ + 13.0 log r

---------------------------------------------------------------------

軌道要素はM.P.E.C. 2024-D126に掲載されたものです。
星図はステラナビゲータ Ver.11 (アストロアーツ) で作成したものです。
光度グラフはComet for Windowsで作成したものです。

---------------------------------------------------------------------

Copyright(C) Seiichi Yoshida (comet@aerith.net). All rights reserved.